Location: Anan
(43.3550°N, 0.8171°E)
Time: 07:17:12
(UTC+00:00)

SL-08 R/B - Pass Details

Date: 14 May 2026
Orbit: 666 x 729 km, 98.5° (Epoch: 5 June)

Event Time Altitude Azimuth Distance (km) Brightness Sun altitude
Rises 20:39:12 0° 11° (NNE) 3,128 7.1 -13.6°
Reaches altitude 10° 20:41:29 10° 10° (N) 2,195 6.3 -13.9°
Maximum altitude 20:46:17 76° 286° (WNW) 728 3.5 -14.5°
Drops below altitude 10° 20:50:58 10° 201° (SSW) 2,139 5.6 -15.1°
Sets 20:53:10 0° 200° (SSW) 3,041 6.3 -15.4°
